GEFSMA_con_prob3kmehi_294.txt.gz
EHI
3 3 3 3 3 3 4 4 4 3 3 3 3 3 2 1 2 2 2 3 5 6 6 7 6 5 5 5 5 5 3 1 0 0 0 1 2 2 1 0 0 0 0
3 3 3 3 3 3 3 4 3 3 3 3 3 3 2 2 2 2 2 2 4 5 5 6 6 6 6 5 5 5 4 2 1 1 0 0 1 1 0 0 0 0 0
3 3 3 3 3 3 3 3 3 3 3 3 3 2 1 1 1 1 1 2 3 4 4 5 6 6 6 5 3 3 3 3 3 2 1 0 0 0 0 0 0 0 0
3 3 3 3 3 3 3 3 3 3 3 3 2 1 0 0 1 1 2 3 3 3 3 4 6 7 5 4 2 2 2 3 3 2 1 0 0 0 0 0 0 0 0
5 4 4 3 3 3 3 3 3 3 4 4 3 2 2 2 3 3 3 4 3 3 3 4 5 6 6 4 3 2 2 2 2 1 0 0 0 0 0 0 0 0 0
9 7 5 3 3 3 3 3 4 4 5 5 5 4 3 3 4 4 3 4 4 3 3 3 3 4 5 4 4 3 3 2 2 2 1 0 0 0 0 0 0 0 0
11 9 7 5 4 3 3 4 4 4 4 5 4 4 3 2 2 1 2 3 3 3 2 2 2 2 2 3 3 3 3 3 3 2 1 1 1 1 0 0 0 0 0
10 10 9 7 5 4 4 4 4 4 4 4 3 3 2 1 0 0 1 3 2 1 1 1 1 1 1 1 1 2 3 3 3 3 3 2 2 2 1 1 1 1 0
8 8 9 9 7 6 6 6 6 5 4 3 3 3 3 2 1 0 0 1 1 0 0 0 0 0 0 0 0 1 2 3 3 3 3 3 3 3 3 2 2 2 1
6 7 9 9 9 9 8 8 8 7 6 4 4 3 3 3 2 1 0 0 0 0 0 0 0 0 0 0 0 0 1 2 3 3 3 3 3 3 3 3 3 3 3
5 7 9 10 11 11 11 11 10 9 8 7 5 4 4 4 3 2 1 0 0 0 0 0 0 0 0 0 0 0 0 1 1 2 3 3 3 3 3 3 3 3 3
5 6 8 10 11 12 12 12 11 10 9 7 6 6 6 5 4 3 3 1 0 0 0 0 0 0 0 0 0 1 1 0 0 1 2 2 2 2 2 2 2 2 2
5 5 6 7 9 10 11 12 12 11 9 7 7 7 7 6 5 5 5 3 2 0 0 0 0 0 0 0 0 1 1 0 0 0 1 1 1 1 1 1 1 1 2
7 7 6 7 7 8 9 11 12 12 10 9 7 7 6 7 7 8 7 6 4 2 0 0 0 0 0 0 0 1 1 0 0 0 0 0 0 0 0 0 0 0 1
9 10 9 8 7 7 8 10 12 13 12 10 8 6 6 7 9 9 8 7 6 4 2 0 0 0 0 0 0 0 0 0 0 0 0 0 0 0 0 0 0 0 0
11 11 10 8 8 8 9 10 12 13 11 10 8 6 5 7 8 9 8 6 6 5 3 1 0 0 0 0 0 0 0 0 0 0 0 0 0 0 0 0 0 0 0
10 11 10 8 7 8 9 10 11 11 9 8 7 5 4 5 6 6 6 5 4 4 3 2 0 0 0 0 0 0 0 0 0 0 0 0 0 0 0 0 0 0 0
11 13 13 9 8 9 9 10 10 9 8 6 5 4 3 3 4 4 4 3 3 3 3 1 0 0 0 0 0 0 0 0 0 1 1 0 0 0 0 0 0 0 0
14 14 13 10 8 9 9 9 8 8 7 4 3 3 3 4 4 3 3 3 3 3 2 1 0 0 0 0 0 0 0 0 0 1 1 0 0 0 0 0 0 0 0
12 11 10 8 7 8 7 6 6 7 5 3 3 3 4 5 5 4 3 3 3 3 2 1 0 0 0 0 0 0 0 0 0 1 1 0 0 0 0 0 0 0 0
10 10 8 6 5 5 5 4 4 3 2 1 2 2 3 4 4 3 3 3 3 3 2 1 0 0 0 0 0 0 0 0 0 0 0 0 0 0 0 0 0 0 0
11 10 8 4 2 2 2 3 2 1 0 0 1 1 1 2 3 2 1 1 2 3 2 1 0 0 0 0 0 0 0 0 0 0 0 0 0 0 0 0 0 0 0
13 11 8 5 3 1 1 1 1 0 0 0 0 0 0 1 1 1 0 0 1 1 1 1 0 0 0 0 0 0 0 0 1 1 1 0 0 0 0 0 0 0 0
13 11 8 5 4 2 1 0 0 0 0 0 0 0 0 1 0 0 0 1 1 1 0 0 0 0 0 0 0 0 0 0 1 2 1 0 0 0 0 0 0 0 0
11 10 8 5 2 2 1 1 1 1 1 1 0 0 0 0 0 0 0 1 1 0 0 0 0 0 0 0 0 0 0 0 1 1 0 0 1 1 1 1 0 0 0
10 10 8 4 1 1 1 1 2 3 3 2 1 0 0 0 0 0 0 1 0 0 0 0 0 0 0 0 0 0 0 0 0 0 0 1 2 2 1 1 0 0 0

GEFSMA_con_prob3kmehi_300.txt.gz
EHI
0 0 0 0 1 3 3 3 3 3 3 4 4 3 1 0 0 0 1 2 2 2 3 5 6 5 4 4 4 4 2 1 0 0 0 0 0 0 0 0 0 0 0
0 1 1 1 2 3 3 3 3 3 3 3 4 3 1 1 1 0 0 1 1 2 3 4 5 6 6 5 4 4 3 2 1 0 0 0 0 0 0 0 0 0 0
1 2 2 3 3 3 3 3 3 3 3 3 3 3 3 2 2 1 0 0 1 2 2 3 4 5 6 5 4 3 3 3 2 1 0 0 0 0 0 0 0 0 0
3 3 3 3 3 3 3 3 3 3 3 3 3 3 3 3 2 1 1 1 2 2 2 1 2 4 4 4 4 2 2 3 3 2 0 0 0 0 0 0 0 0 0
3 3 3 3 3 3 3 3 3 3 3 3 2 3 3 2 1 0 0 1 2 3 2 1 1 2 3 3 3 2 1 2 3 2 0 0 0 0 0 0 0 0 0
3 3 4 3 3 3 3 3 3 3 3 1 1 1 2 2 1 1 0 0 1 3 2 1 0 1 1 2 3 3 2 3 3 3 1 0 0 0 0 0 0 0 0
3 3 4 4 3 3 3 3 3 3 3 1 1 1 2 2 2 1 0 0 1 2 2 1 0 0 0 1 2 3 4 5 5 4 3 1 1 1 0 0 0 0 0
2 3 4 4 4 3 3 3 3 3 3 3 2 2 3 3 2 1 0 0 1 2 2 1 0 0 0 0 1 2 4 5 5 4 3 3 2 2 1 1 1 1 0
1 2 4 4 4 4 3 3 4 4 3 3 3 3 3 3 3 2 1 0 0 1 1 0 0 0 0 0 0 1 1 3 3 3 3 3 3 3 3 2 2 2 1
0 1 2 3 4 4 4 5 5 5 4 4 3 3 3 3 3 3 2 1 0 0 0 0 0 0 0 0 0 0 0 1 1 2 2 2 3 3 3 3 3 3 3
1 1 1 3 5 6 6 7 8 7 7 6 5 5 4 4 4 4 4 3 1 0 0 0 0 0 0 0 0 0 0 0 0 1 1 1 2 2 2 3 3 3 2
3 3 2 4 6 6 7 8 9 10 10 9 8 7 6 6 6 6 6 5 3 1 1 1 0 0 0 0 0 0 0 0 0 0 0 1 2 1 1 1 2 1 1
5 4 4 5 6 6 7 8 10 11 11 10 10 9 8 7 8 8 7 6 4 3 2 2 1 0 0 0 0 0 0 0 0 0 0 1 1 1 0 0 0 0 0
3 3 3 4 5 6 7 8 9 10 11 11 10 10 9 9 9 9 8 6 4 3 3 3 1 0 0 0 0 0 0 0 0 0 0 0 0 0 0 0 0 0 0
1 1 1 1 2 4 7 9 9 9 10 11 11 10 10 9 9 8 7 6 5 4 3 3 2 1 0 1 0 0 0 0 0 0 0 0 0 0 0 0 0 0 0
1 0 0 0 0 2 4 6 7 8 9 10 10 9 8 8 7 6 6 5 5 4 4 3 2 1 0 0 0 0 0 0 0 0 0 0 0 0 0 0 0 0 0
2 1 0 0 1 1 2 3 5 6 7 8 7 6 5 5 4 4 4 4 4 4 3 3 2 1 0 0 1 1 1 0 0 0 0 0 0 0 0 0 0 0 0
2 1 1 2 2 3 2 3 5 6 6 5 4 3 3 3 3 2 3 3 3 3 3 3 3 1 0 0 1 1 1 0 0 0 0 0 0 0 0 0 0 0 0
3 3 4 4 4 4 3 4 5 5 4 2 1 1 1 2 1 1 1 3 3 2 2 3 3 2 1 0 0 0 0 0 0 0 0 0 0 0 0 0 0 0 0
5 5 6 6 5 4 3 4 4 3 2 1 0 0 0 0 0 0 1 2 2 1 1 1 2 2 1 0 0 0 0 0 0 0 0 0 0 0 0 0 0 0 0
6 6 6 6 6 4 3 3 3 1 1 1 0 0 0 0 0 0 0 1 1 0 0 0 1 1 1 0 0 0 0 0 0 0 0 0 0 0 0 0 0 0 0
6 6 6 6 5 3 2 2 2 1 0 0 0 0 0 0 0 0 0 0 0 0 0 0 0 0 1 1 1 1 0 0 0 0 0 0 0 0 0 0 0 0 0
8 7 6 5 4 3 1 0 0 0 0 0 0 0 0 0 0 0 0 0 0 0 0 0 0 0 0 1 2 2 1 0 0 0 0 0 0 0 0 0 0 0 0
9 7 6 5 5 3 1 0 0 0 0 0 0 0 0 0 0 0 0 0 0 0 0 0 0 0 0 0 1 2 1 0 0 0 0 0 0 0 1 1 0 0 0
8 7 6 5 4 3 1 0 0 0 0 0 0 0 0 0 0 0 0 0 0 0 0 0 0 0 0 0 0 1 1 0 0 0 0 1 1 1 2 2 1 1 0
7 7 6 5 4 2 1 0 0 0 0 0 0 0 0 0 0 0 0 0 0 0 0 0 0 0 0 0 0 0 0 0 0 0 1 2 2 2 3 3 2 2 1

GEFSMA_con_prob3kmehi_306.txt.gz
EHI
5 4 3 4 4 4 5 6 6 6 6 6 6 6 7 8 9 8 8 9 11 11 8 7 6 6 6 6 5 5 6 7 7 5 4 3 3 3 3 3 3 3 3
6 4 4 4 5 5 5 6 6 6 6 6 6 6 7 7 7 7 7 8 10 10 9 7 6 6 5 4 4 4 5 6 7 6 4 3 3 3 3 3 3 3 3
6 6 5 6 7 7 6 6 6 6 6 6 6 6 6 6 6 6 7 7 8 8 8 7 7 6 4 3 3 3 4 6 8 7 4 3 3 3 3 3 3 3 3
8 8 7 7 7 8 8 8 8 8 7 6 5 5 5 6 6 6 6 6 7 7 7 8 8 7 5 3 3 3 4 5 7 6 5 3 3 3 3 3 3 3 3
8 9 9 9 8 8 9 9 9 9 8 7 6 6 6 6 6 6 6 6 6 6 7 8 10 9 6 5 4 4 4 4 5 6 5 4 4 3 3 3 3 3 2
7 8 10 10 9 9 9 9 9 9 8 8 7 6 6 7 7 7 7 6 6 6 7 8 9 8 7 8 7 6 5 4 5 5 6 6 6 5 4 3 2 1 1
6 8 9 10 10 11 11 11 10 9 9 8 8 7 7 8 8 8 8 7 6 7 8 8 8 8 9 10 10 9 8 6 6 6 6 7 7 5 4 3 2 0 0
6 7 8 9 10 12 13 13 11 10 9 9 9 9 9 8 8 8 9 8 7 7 8 8 10 12 12 11 11 10 9 9 8 7 7 6 5 4 4 3 2 1 1
7 6 6 8 10 12 13 13 12 11 10 10 10 10 9 8 7 7 8 8 8 8 8 9 11 14 14 12 11 8 7 7 7 6 5 4 2 1 2 2 2 2 2
7 6 6 7 10 11 12 12 12 12 11 10 10 10 10 9 8 7 7 8 9 9 9 9 10 11 12 12 9 6 4 3 3 4 4 3 2 1 1 1 1 1 1
6 6 7 9 12 12 12 12 12 12 11 11 11 11 11 10 9 9 8 8 9 10 10 10 9 9 9 9 8 5 2 1 1 2 3 3 3 1 0 0 0 1 1
7 7 10 13 15 15 16 16 14 12 11 11 12 12 12 12 11 10 10 9 9 9 9 9 8 6 6 7 6 4 2 0 0 1 2 2 3 2 1 1 0 0 0
8 10 14 18 18 18 19 19 16 12 12 12 12 13 13 13 12 11 10 9 8 7 7 7 5 4 5 6 6 4 2 1 0 0 0 1 2 3 3 2 1 1 0
10 13 17 19 20 20 21 20 15 12 12 12 12 14 14 13 12 11 10 9 8 7 6 6 5 4 5 6 5 4 3 1 0 0 0 0 1 2 3 3 2 1 1
17 18 19 20 21 22 22 20 15 13 13 13 13 13 12 12 12 10 9 9 9 7 7 6 6 5 5 5 4 4 4 2 0 0 0 0 0 1 1 2 2 1 0
25 25 23 23 25 25 23 19 16 14 13 12 12 11 10 9 9 9 8 8 8 7 6 6 5 5 5 4 4 5 5 3 1 0 0 0 0 0 0 1 1 0 0
31 29 27 26 28 27 25 20 16 15 12 9 8 8 7 6 6 6 6 6 7 6 5 3 3 3 4 3 3 4 5 4 3 1 0 0 0 0 0 0 0 0 0
33 31 28 28 29 29 27 23 19 17 12 7 5 4 4 5 5 5 6 6 6 5 3 1 1 1 2 1 1 2 3 3 3 1 0 0 0 0 0 0 0 0 0
34 31 29 28 27 26 24 23 21 18 13 8 5 4 4 4 5 7 7 6 6 5 2 1 0 1 1 0 0 0 1 3 2 0 0 0 0 0 0 0 0 0 0
30 29 28 26 22 19 19 20 19 18 15 9 6 4 5 5 5 6 7 6 6 5 3 1 0 0 0 0 0 0 1 2 2 1 2 1 0 0 0 0 0 0 0
21 22 21 20 17 14 13 15 17 18 16 12 8 6 5 4 3 2 3 4 5 4 4 2 1 0 0 0 0 0 0 1 2 3 4 3 2 1 1 0 1 1 0
14 15 16 16 15 12 10 9 12 16 16 14 12 9 6 3 2 1 1 1 2 3 4 4 2 1 0 0 0 0 0 1 2 3 3 3 3 2 1 1 2 2 1
13 14 14 14 14 12 8 5 7 12 14 13 13 10 6 3 3 3 2 0 1 1 3 4 3 1 0 0 0 0 1 1 1 1 1 1 2 2 1 1 3 2 1
15 15 14 14 15 12 7 3 4 9 13 12 11 9 7 4 4 4 3 2 2 2 2 1 1 0 0 0 1 1 1 1 1 0 0 0 1 1 2 2 3 2 1
17 17 17 17 17 14 8 2 3 8 12 12 11 9 7 5 3 2 3 3 4 4 2 0 0 0 0 0 0 0 0 0 0 0 1 1 1 1 2 3 3 3 2
20 20 19 20 20 17 8 2 2 8 13 13 12 9 6 4 3 2 2 4 5 5 3 1 0 0 0 0 0 0 0 0 0 1 2 2 1 2 3 3 3 3 3

GEFSMA_con_prob3kmehi_312.txt.gz
EHI
10 11 12 11 9 9 11 11 10 10 9 8 7 5 5 7 8 6 6 10 13 13 13 13 12 11 10 10 9 8 6 5 4 4 3 2 1 0 0 0 0 0 0
13 12 12 12 10 9 10 10 10 9 9 8 7 5 5 6 6 5 6 9 12 13 13 13 13 12 11 10 10 9 7 6 6 5 5 4 2 0 0 0 0 0 0
17 16 14 12 11 11 11 9 8 8 7 6 6 6 6 5 4 4 6 9 11 12 12 13 13 12 12 11 11 10 9 7 6 6 7 7 5 2 0 0 0 0 0
21 20 15 10 10 11 11 9 8 7 6 5 6 7 7 6 5 5 7 10 12 12 12 14 15 13 12 13 13 12 10 9 8 7 7 7 6 4 1 0 1 0 0
21 19 15 10 9 10 10 10 10 9 6 5 5 7 9 9 8 8 9 12 13 14 14 15 16 14 13 14 15 14 13 12 11 9 8 7 6 5 2 1 0 0 0
16 16 14 12 10 9 10 13 13 12 10 6 4 6 9 11 12 11 11 13 14 16 17 18 17 15 13 15 17 17 16 16 15 13 10 8 7 7 4 2 1 0 0
12 12 12 12 11 10 12 14 15 15 13 9 6 6 7 9 9 10 11 12 14 17 19 20 20 18 16 15 16 17 17 17 17 16 13 9 8 8 6 5 3 1 0
11 12 13 13 11 11 14 15 16 16 14 10 9 7 5 5 5 8 11 12 13 17 19 20 21 20 18 15 14 14 14 16 18 16 12 9 7 7 6 5 4 2 1
14 14 15 15 13 12 15 16 17 16 13 11 11 10 7 5 5 7 10 11 13 15 17 17 18 18 18 18 16 13 11 14 16 15 11 9 8 7 5 4 3 2 2
19 18 19 20 18 16 17 17 17 17 16 15 14 12 10 8 7 6 7 8 10 12 13 12 13 15 18 19 17 12 9 10 13 13 12 11 11 8 6 4 3 1 1
24 23 24 26 24 22 21 20 19 20 20 18 16 14 13 11 9 6 6 6 7 8 9 9 10 13 17 18 15 11 7 6 7 9 10 11 11 10 7 5 3 1 1
25 25 26 28 28 27 26 26 25 24 22 19 16 15 14 12 10 8 6 5 4 4 6 9 11 13 15 14 11 8 6 4 3 4 4 7 9 10 7 5 3 2 2
26 26 27 28 29 30 30 30 29 27 25 21 16 14 14 12 10 9 7 4 3 3 5 8 11 12 12 11 8 5 4 3 1 1 1 2 5 7 6 4 3 2 1
27 30 32 31 30 30 30 30 29 29 28 24 18 15 14 13 11 10 8 6 4 5 6 9 10 10 11 10 6 3 3 2 0 0 0 1 2 4 4 3 1 1 0
29 32 35 33 30 28 28 28 29 28 27 23 18 16 16 16 14 11 10 8 7 7 8 9 9 8 9 9 5 4 4 1 0 0 0 0 1 2 2 2 1 0 0
36 36 36 34 31 28 27 28 27 25 23 20 17 16 17 15 13 12 11 10 8 7 8 7 7 6 7 6 5 4 3 1 0 0 0 0 0 1 1 1 0 0 0
43 42 40 37 33 29 29 29 27 24 21 19 18 17 15 12 10 11 12 10 8 6 6 6 5 6 5 4 3 2 1 0 0 0 0 0 0 0 0 0 0 0 0
46 45 43 39 34 30 30 30 28 26 22 19 18 17 16 13 11 11 11 10 8 7 6 6 7 7 6 4 2 1 0 0 0 0 0 0 0 0 0 0 0 0 0
45 45 43 39 34 30 29 27 27 25 21 17 15 16 17 17 14 12 11 10 9 8 8 8 8 8 6 4 2 1 1 1 1 0 0 0 0 0 0 0 0 0 0
43 43 41 37 32 27 25 25 24 23 19 14 14 17 18 18 16 12 10 10 9 9 9 8 7 7 7 6 3 1 2 3 2 0 0 0 0 0 0 0 0 0 0
39 40 37 32 26 21 20 21 22 22 19 16 17 18 17 14 12 9 7 7 8 7 7 7 7 7 8 7 4 1 1 1 1 0 0 0 0 0 0 0 0 0 0
34 34 32 28 23 17 14 15 17 20 20 18 19 19 15 10 7 5 4 3 4 5 5 6 7 7 8 8 5 2 1 0 0 0 0 0 0 0 0 1 0 0 0
30 29 29 28 24 18 11 8 10 16 19 19 20 20 16 12 9 7 5 3 2 2 2 3 6 8 8 8 6 4 3 2 2 1 0 0 0 0 0 0 0 0 0
28 27 26 27 26 19 10 5 5 11 17 20 22 22 20 18 14 11 8 6 4 2 1 1 3 6 6 5 4 5 5 4 4 3 2 1 0 0 0 0 0 0 0
27 27 25 24 23 19 10 4 3 9 16 21 24 24 23 20 15 11 10 9 7 4 2 1 1 3 3 3 3 4 4 4 4 3 3 2 1 0 0 0 1 1 0
27 26 22 20 22 20 11 3 3 10 17 20 22 23 22 19 12 9 11 11 8 5 3 2 1 1 1 1 2 3 3 3 3 2 3 3 2 1 0 1 2 2 1

GEFSMA_con_prob3kmehi_318.txt.gz
EHI
5 4 3 3 3 3 3 3 3 3 3 3 3 3 3 3 3 3 4 6 9 11 11 9 10 12 12 10 8 7 6 6 5 4 3 2 1 1 0 0 0 0 0
3 3 3 3 3 3 3 3 3 3 3 3 3 3 4 4 3 3 3 4 6 9 10 11 11 11 12 11 10 8 7 6 6 5 3 2 2 2 1 1 0 0 0
2 3 3 3 3 3 3 4 4 4 3 3 3 4 4 4 4 3 3 3 4 6 8 10 12 12 12 13 12 10 8 8 8 7 4 2 1 2 2 1 1 0 0
2 3 3 3 4 4 4 4 4 4 4 3 3 3 4 4 3 3 3 3 3 4 5 8 12 14 14 14 13 12 11 10 9 8 6 3 2 1 1 1 1 0 0
4 5 5 4 5 4 4 4 4 4 3 3 3 3 3 3 3 4 3 3 3 3 4 6 9 12 15 16 16 14 13 12 12 10 8 6 4 3 1 0 0 0 0
6 7 6 6 5 4 3 3 3 3 3 3 3 3 3 3 4 4 3 1 1 2 3 4 5 8 12 15 16 14 13 14 14 11 9 8 7 5 3 1 1 0 0
7 7 7 6 5 3 1 1 3 3 3 3 3 3 3 3 3 4 3 1 0 1 2 3 3 4 7 10 12 13 13 14 13 11 9 8 6 4 3 3 2 1 0
6 7 7 6 5 3 2 1 3 3 3 3 3 2 3 3 3 3 3 1 1 1 1 2 3 3 4 5 7 9 11 11 11 9 7 6 4 3 3 3 3 2 1
6 6 6 6 6 5 4 3 3 3 3 3 3 3 3 3 3 3 3 2 1 1 1 1 1 3 4 4 4 5 7 8 8 7 6 4 3 2 2 2 3 3 3
5 5 5 5 5 6 5 4 3 3 3 3 3 3 3 3 3 3 3 3 2 2 1 0 1 3 4 4 4 3 4 6 6 5 4 4 2 1 0 1 1 2 2
7 6 4 4 5 7 6 5 3 3 3 3 3 3 3 3 3 3 3 3 3 3 2 1 2 3 4 4 3 3 3 3 3 3 3 4 2 1 0 0 0 1 2
11 9 7 6 7 9 9 7 5 4 4 4 3 3 3 4 3 3 3 3 3 2 1 1 3 3 3 3 2 1 1 1 1 1 2 3 2 1 0 0 0 1 2
15 12 10 10 10 11 12 11 8 6 6 5 4 3 4 4 3 3 3 3 2 1 0 1 2 3 2 1 1 0 0 0 0 0 1 1 1 0 0 0 0 1 1
17 14 12 12 12 13 14 13 11 9 9 8 6 5 4 2 2 3 3 3 2 0 0 0 1 1 1 0 0 0 0 0 0 0 0 0 0 0 0 0 0 0 0
14 14 14 14 15 15 15 15 13 12 12 10 8 5 2 1 1 1 2 2 2 1 1 1 0 0 0 0 0 0 0 0 0 0 0 0 0 0 0 0 0 0 0
12 13 14 15 16 16 16 16 15 13 13 12 8 4 1 0 1 1 2 2 2 2 2 1 0 0 0 0 0 0 0 0 0 0 0 0 0 0 0 0 0 0 0
10 10 11 13 14 14 14 15 14 12 11 10 7 4 2 1 2 4 3 2 2 2 2 1 0 0 0 0 0 0 0 0 0 0 0 0 0 0 0 0 0 0 0
9 9 8 9 9 10 11 13 12 10 8 8 7 5 4 2 3 5 5 3 1 1 1 0 0 0 0 0 0 0 0 0 0 0 0 0 0 0 0 0 0 0 0
11 10 7 6 7 9 10 11 11 9 7 6 6 6 6 4 4 6 6 3 1 0 0 0 0 0 0 0 0 0 0 0 0 0 0 0 0 0 0 0 0 0 0
15 13 9 6 6 8 9 10 9 8 7 7 7 6 6 5 4 5 6 4 2 1 1 0 0 0 0 0 0 0 0 0 0 0 0 0 0 0 0 0 0 0 0
18 15 11 9 7 7 8 8 8 8 8 8 6 6 6 5 3 2 3 2 2 2 2 1 1 0 0 0 0 0 0 0 0 0 0 0 0 0 0 0 0 0 0
19 16 12 10 7 6 6 6 6 7 9 8 6 4 4 4 1 0 0 0 1 2 3 3 2 1 1 0 0 0 0 0 0 0 0 0 0 0 0 0 0 0 0
16 14 11 8 7 6 5 3 3 5 8 7 5 4 3 3 1 0 0 0 0 1 2 3 3 3 2 1 1 0 0 0 0 0 0 0 0 0 0 0 0 0 0
13 11 9 8 6 5 3 2 1 2 4 5 4 4 3 3 1 0 0 0 0 0 1 1 2 2 2 2 2 1 0 0 0 0 0 0 0 0 0 0 0 0 0
12 12 11 10 8 6 3 1 0 0 2 3 3 3 3 2 1 0 0 0 0 0 0 0 1 1 1 2 2 2 1 1 0 0 0 0 0 0 0 0 0 0 0
14 14 13 11 10 8 4 1 0 1 2 3 3 2 1 1 0 0 0 0 0 0 0 0 0 0 0 1 2 2 2 2 1 0 0 0 0 0 0 0 0 0 0

GEFSMA_con_prob3kmehi_324.txt.gz
EHI
0 1 2 2 2 3 3 3 3 3 3 3 3 3 3 3 3 3 3 4 4 4 3 4 5 6 6 6 6 7 6 5 4 5 5 4 2 1 2 3 2 2 2
0 0 1 1 2 3 3 3 3 3 3 3 3 3 3 3 3 3 4 4 4 3 3 3 4 5 5 6 6 7 7 7 7 7 7 6 4 2 2 2 2 2 1
0 0 0 1 2 3 3 3 3 3 3 3 3 3 3 3 3 4 5 5 4 3 3 3 3 4 5 5 6 6 8 9 9 9 9 8 6 4 3 2 1 1 1
0 0 0 1 2 2 3 3 3 3 3 3 3 3 3 3 3 4 5 5 4 3 1 2 3 4 4 4 4 5 7 9 9 8 9 10 8 6 4 2 1 0 0
0 0 0 0 1 1 1 2 3 3 3 3 3 3 3 2 2 3 4 4 3 2 1 0 1 2 3 3 3 4 5 8 8 7 7 9 8 7 5 3 1 0 0
0 0 0 0 0 0 0 1 1 2 3 2 2 3 3 2 2 2 3 3 2 1 0 0 0 1 2 3 3 3 4 6 7 6 6 7 8 7 5 3 1 0 0
0 0 0 0 0 0 0 0 0 2 3 2 2 3 3 3 2 2 2 3 2 0 0 0 0 0 1 3 3 3 4 5 6 7 8 8 7 5 4 2 1 0 0
1 1 1 0 0 0 1 1 1 3 3 3 3 3 3 3 2 1 1 2 2 1 0 0 0 0 1 2 3 3 3 4 6 7 9 9 6 3 1 1 0 0 0
2 2 2 1 0 1 2 2 3 4 4 4 3 3 3 3 3 1 1 2 2 1 0 0 0 0 1 2 3 3 1 2 3 4 5 7 7 3 0 0 0 1 1
3 3 2 1 1 3 4 3 4 6 6 5 4 3 3 3 3 2 1 2 1 0 0 0 0 0 0 1 2 2 1 0 1 1 1 4 5 3 1 0 0 0 0
3 3 3 2 2 4 4 4 5 7 7 6 4 3 3 3 3 2 1 1 1 0 0 0 0 0 0 0 1 1 0 0 0 0 0 1 2 2 1 0 0 0 0
2 3 4 3 2 4 4 4 6 8 8 7 6 5 4 3 4 3 1 0 0 0 0 0 0 0 0 0 0 0 0 0 0 0 0 0 0 0 0 0 0 0 0
2 3 4 4 3 4 5 6 7 8 8 7 7 6 5 5 5 4 1 0 0 0 0 0 0 0 0 0 0 0 0 0 0 0 0 0 0 0 0 0 0 0 0
2 2 2 3 2 3 5 6 7 8 8 8 7 7 7 7 7 5 3 1 0 0 0 0 0 0 0 0 0 0 0 0 0 0 0 0 0 0 0 0 0 0 0
3 2 1 1 1 1 3 5 6 7 8 8 8 7 7 8 7 5 4 3 1 1 0 1 1 0 0 0 0 0 0 0 0 0 0 0 0 0 0 0 0 0 0
5 4 2 0 1 1 2 3 4 5 6 7 7 5 5 5 5 5 4 3 2 2 2 2 1 0 0 0 0 0 0 0 0 0 0 0 0 0 0 0 0 0 0
6 5 3 1 1 1 1 2 2 3 5 5 4 3 2 2 3 3 2 2 2 3 3 3 2 0 0 0 0 0 0 0 0 0 0 0 0 0 0 0 0 0 0
6 5 3 1 1 1 2 2 3 4 4 4 4 3 2 1 1 1 1 0 1 3 3 3 2 1 0 0 0 0 0 0 0 0 0 0 0 0 0 0 0 0 0
7 6 4 2 2 2 3 4 5 7 7 6 6 5 3 2 1 0 0 0 1 2 2 2 2 1 0 0 0 0 0 0 0 0 0 0 0 0 0 0 0 0 0
7 7 6 5 5 5 5 6 7 9 9 8 6 5 4 3 1 1 0 0 0 1 1 1 1 0 0 0 0 0 0 0 0 0 0 0 0 0 0 0 0 0 0
7 7 6 6 6 6 6 6 7 8 8 7 6 5 4 3 2 1 0 0 0 0 0 0 0 0 0 0 0 0 0 0 0 0 0 0 0 0 0 0 0 0 0
6 5 4 5 6 6 5 4 4 4 4 4 5 5 5 3 2 1 0 0 0 0 0 0 0 0 0 0 0 0 0 0 0 0 0 0 0 0 0 0 0 0 0
5 4 3 4 4 4 3 2 1 1 1 3 5 5 5 4 2 1 0 0 0 0 0 0 0 0 0 0 0 0 0 0 0 0 0 0 0 0 0 0 0 0 0
4 4 4 3 4 4 3 1 0 0 1 3 5 5 4 4 3 2 0 0 0 0 0 0 0 0 0 0 0 0 0 0 0 0 0 0 0 0 0 0 0 0 0
5 6 6 4 4 3 3 1 1 1 2 3 3 3 3 3 2 1 0 0 0 0 0 0 0 0 0 0 0 0 0 0 0 0 0 0 0 0 0 0 0 0 0
8 8 8 6 4 3 2 1 1 2 3 3 3 2 2 1 1 0 0 0 0 0 0 0 0 0 0 0 0 0 0 0 0 0 0 0 0 0 0 0 0 0 0

GEFSMA_con_prob3kmehi_330.txt.gz
EHI
4 4 4 4 4 6 7 6 4 3 3 3 3 3 3 3 3 3 3 4 6 6 5 5 5 4 4 3 3 3 3 3 3 3 3 2 1 0 0 0 0 0 0
5 4 4 4 4 5 7 6 5 4 3 3 3 3 3 3 3 4 3 4 5 6 6 5 5 4 4 3 3 3 3 4 4 3 3 3 3 2 1 0 0 0 0
4 5 4 3 3 3 5 7 6 5 5 4 3 2 3 4 4 4 3 3 3 5 6 5 4 4 3 3 3 4 5 5 5 4 4 5 5 4 2 1 0 0 0
3 4 4 3 3 3 3 6 8 8 7 6 4 3 3 4 4 4 2 1 1 2 4 5 4 3 3 3 3 5 6 6 5 5 5 6 7 6 4 1 0 0 0
2 2 3 3 2 2 3 4 7 9 8 7 5 3 3 3 3 2 1 0 0 0 2 4 4 3 1 1 3 4 5 6 6 6 6 6 7 7 6 3 1 0 0
2 2 3 3 2 2 3 3 5 7 7 6 5 3 2 2 1 1 0 0 0 0 0 2 4 4 2 1 2 3 4 6 7 7 6 6 6 7 6 5 3 2 1
3 3 4 5 4 3 3 4 5 5 5 5 5 3 2 2 1 0 0 0 0 0 0 1 3 5 4 2 2 3 3 5 7 6 6 6 6 5 5 5 4 2 1
4 4 5 6 6 4 3 4 5 5 5 5 5 4 2 2 1 0 0 0 0 0 0 0 2 3 4 3 2 2 2 4 5 5 4 4 5 4 3 4 3 2 1
5 6 6 7 6 5 4 4 4 6 6 6 7 6 4 3 1 1 0 0 0 0 0 0 0 1 1 2 1 1 1 1 2 2 2 2 3 2 2 2 2 1 1
8 8 8 9 7 5 4 3 3 4 6 8 10 9 6 4 4 3 1 1 0 0 0 0 1 1 1 1 1 1 0 0 0 0 0 1 1 1 1 1 1 0 0
8 8 9 10 9 7 6 4 3 4 5 7 9 9 7 7 7 6 4 2 1 0 0 1 2 3 2 2 2 1 0 0 0 0 0 0 0 0 0 1 0 0 0
5 6 8 9 10 10 9 8 6 5 5 7 10 9 7 8 8 8 7 5 3 1 1 1 3 4 4 3 2 1 0 0 0 0 0 0 0 0 0 1 1 0 0
2 4 6 7 9 10 12 11 9 9 9 11 13 11 9 8 8 10 11 9 6 3 2 3 3 3 3 3 3 1 0 0 0 0 0 0 0 0 0 1 1 0 0
4 6 7 7 8 9 11 10 9 11 15 16 15 13 12 11 11 11 13 11 8 4 3 3 3 2 2 2 2 1 0 0 0 0 0 0 0 0 1 1 0 0 0
8 9 9 7 7 8 9 9 9 12 17 17 15 14 13 12 11 11 11 11 9 5 3 3 3 2 2 2 2 1 1 0 0 0 0 0 0 0 0 0 0 0 0
11 11 11 10 9 9 9 8 8 10 14 14 12 12 12 11 9 9 9 10 9 5 3 4 3 2 3 4 3 3 2 1 0 0 0 0 0 0 0 0 0 0 0
12 12 12 11 11 11 12 11 10 12 13 13 12 11 10 10 8 9 9 10 10 7 4 3 3 4 5 5 4 4 3 1 0 0 0 0 0 0 0 0 0 0 0
14 13 12 12 12 12 15 17 16 16 16 14 12 11 10 9 9 10 11 12 12 9 5 3 3 5 6 5 5 4 3 1 0 0 0 0 0 0 0 0 0 0 0
15 14 12 12 11 11 15 18 19 19 17 15 13 12 10 10 10 10 10 11 12 10 7 4 4 5 4 5 4 3 2 2 1 0 0 0 0 0 0 0 0 0 0
12 11 10 10 10 11 13 17 18 18 16 14 13 11 10 9 9 9 10 10 10 10 8 6 4 4 3 4 4 3 2 2 1 0 0 0 0 0 0 0 0 0 0
8 8 8 8 9 9 9 11 14 15 15 14 13 11 9 8 8 7 7 7 8 8 8 7 6 5 4 4 4 3 2 3 3 2 1 1 1 1 1 0 0 0 0
6 7 8 7 7 6 4 4 6 11 13 13 14 12 8 6 5 4 3 3 3 4 6 7 8 7 5 5 5 5 4 5 5 4 2 1 1 2 2 1 0 0 0
9 10 9 7 5 3 1 0 1 5 9 11 12 12 8 5 4 3 2 2 2 2 3 5 7 7 6 7 8 8 8 7 7 6 3 2 2 1 1 1 0 0 0
13 12 10 6 4 1 0 0 0 2 6 7 8 9 9 6 4 4 5 5 4 2 1 2 4 4 4 6 9 11 10 9 7 6 4 3 2 1 1 0 0 0 0
16 13 9 5 2 1 0 0 0 1 4 5 5 6 7 6 4 5 8 9 7 5 2 1 1 1 2 3 6 8 9 8 6 5 5 4 3 2 1 0 0 0 0
16 13 8 4 1 0 0 0 0 1 2 4 4 4 4 4 4 5 9 10 9 7 4 2 1 0 0 1 3 6 8 7 5 5 5 5 4 2 1 0 0 0 0

GEFSMA_con_prob3kmehi_336.txt.gz
EHI
8 7 7 9 10 8 7 7 5 4 3 3 3 3 3 3 2 3 7 12 16 18 16 13 8 5 5 4 4 5 6 6 5 4 3 3 3 3 3 3 3 1 0
10 10 10 11 12 11 9 9 7 5 5 4 4 4 4 4 3 3 6 10 13 15 16 14 9 6 6 6 6 6 6 5 4 3 3 3 3 3 3 3 3 2 1
13 14 14 14 15 14 14 13 11 8 8 7 6 6 6 6 5 5 6 8 9 10 13 15 13 9 8 8 7 6 5 4 3 3 3 3 3 3 3 3 3 3 2
15 16 14 13 15 16 16 15 13 11 11 11 10 8 8 8 7 6 5 7 7 7 9 14 16 12 8 7 5 5 6 6 5 4 3 4 3 3 3 3 3 4 4
15 14 12 11 13 14 13 12 12 12 13 12 10 9 9 10 9 6 5 6 8 9 8 11 14 11 7 5 5 5 6 8 8 5 4 5 4 3 3 3 4 5 5
14 13 10 9 10 11 10 10 10 10 10 10 9 8 8 9 9 8 7 7 9 10 10 12 13 10 6 5 5 6 6 7 6 5 5 5 4 3 3 3 3 4 5
13 11 9 8 10 8 8 10 9 7 6 8 8 8 7 7 8 9 8 7 7 9 11 14 14 11 6 4 3 4 4 4 3 3 4 4 3 2 2 2 3 3 4
10 10 8 9 10 10 10 11 10 7 6 6 8 9 8 7 8 10 11 11 10 11 12 12 14 13 10 7 4 3 2 3 2 1 1 1 1 1 1 1 1 2 2
10 10 9 9 11 14 14 13 13 10 7 6 7 9 9 8 8 9 11 14 16 16 12 9 11 14 14 13 9 4 2 2 1 0 0 0 0 0 0 0 0 1 1
11 11 9 9 11 14 15 15 14 14 11 7 6 8 8 8 8 8 9 13 16 17 13 9 9 12 14 15 12 7 3 1 0 0 0 0 0 0 0 0 0 0 0
13 12 11 9 11 13 15 16 16 16 15 12 10 10 10 10 9 7 7 9 12 15 14 12 11 12 13 14 11 7 3 1 0 0 0 0 0 0 0 0 0 0 0
18 17 15 13 13 14 16 18 19 18 17 17 16 15 14 14 11 8 6 7 8 11 14 14 14 14 13 12 10 5 3 1 0 0 0 0 0 0 0 0 0 0 0
24 23 20 18 17 17 17 17 19 19 18 19 19 18 17 16 13 10 7 6 6 8 10 12 14 15 14 12 9 5 3 1 0 0 0 0 0 0 0 0 0 0 0
26 27 25 23 23 22 21 19 19 19 20 19 18 18 17 16 13 11 9 7 6 6 6 8 12 14 14 12 8 4 4 3 1 0 0 0 0 0 0 0 0 0 0
25 28 29 27 26 27 26 24 22 21 21 19 17 17 16 14 13 12 11 10 8 6 5 5 9 12 14 10 5 4 5 3 1 0 0 0 0 0 0 0 0 0 0
24 27 30 27 25 25 26 25 23 21 22 21 19 18 16 14 13 12 12 12 11 9 7 6 8 12 14 9 4 4 5 3 1 0 0 0 0 0 0 0 0 0 0
25 26 27 25 23 22 23 22 21 21 22 22 21 20 17 15 13 12 11 11 12 11 10 9 10 13 15 11 6 5 3 2 1 0 0 0 0 0 0 0 0 0 0
24 23 23 23 24 22 20 19 19 18 20 21 21 20 19 16 12 11 11 12 12 13 12 11 11 13 14 11 8 6 4 2 1 0 0 0 0 0 0 0 0 0 0
24 21 21 23 24 22 19 17 15 14 16 18 19 19 18 16 13 11 11 12 14 13 12 11 10 11 12 11 10 8 6 5 2 0 0 0 0 0 0 0 0 0 0
24 20 19 20 20 17 15 14 14 13 13 15 17 17 16 14 12 10 10 12 12 12 10 10 10 9 11 12 11 9 8 6 4 2 1 1 0 0 0 0 0 0 0
21 18 16 15 13 10 9 11 12 11 11 12 13 14 12 10 8 7 7 9 10 10 10 9 8 9 11 13 12 10 8 7 6 5 3 2 1 0 0 0 0 0 0
20 17 14 12 9 5 4 6 7 7 7 8 9 11 9 6 5 4 4 4 6 7 8 7 6 6 10 12 12 10 9 8 7 7 5 3 1 0 0 0 0 0 0
19 18 15 13 9 5 2 2 2 2 3 4 7 9 7 4 4 5 4 4 4 3 4 4 3 4 7 11 11 9 9 9 9 9 7 5 3 2 0 0 0 0 0
18 17 16 14 11 5 1 0 0 1 1 3 6 9 8 5 5 5 7 7 6 3 2 1 1 3 5 7 9 9 9 9 10 9 8 7 6 4 2 0 0 0 0
18 17 16 15 12 7 2 0 0 1 1 2 5 7 8 6 4 3 5 6 7 6 4 1 1 2 3 4 6 7 8 9 9 9 8 7 6 5 3 1 0 0 0
18 17 16 15 13 9 4 1 0 1 2 2 4 6 7 5 2 1 2 4 6 8 7 4 1 1 1 1 2 4 7 8 9 9 8 6 5 5 3 1 0 0 0